Tabellarische Ansicht des 27.2.2009


Die einzelnen Werte des Tages

Uhrzeit Temperatur Luftdruck Luftfeuchte Wind Hi-Wind Taupunkt THW Index Wind Chill Heat Index Solar- strahlung Regen

00:00

5.6 C

1010.9 hpa

92 %

12.9 km/h aus 113

20.9 km/h aus WSW

4.4 C

2.8 C

2.8 C

5.6 C

0 W/m

0.25 mm

00:05

5.6 C

1010.9 hpa

92 %

16.1 km/h aus 111

29.0 km/h aus WNW

4.4 C

2.3 C

2.3 C

5.6 C

0 W/m

0.00 mm

00:10

5.6 C

1010.9 hpa

92 %

14.5 km/h aus 114

29.0 km/h aus WNW

4.4 C

2.6 C

2.6 C

5.6 C

0 W/m

0.00 mm

00:15

5.6 C

1011.0 hpa

92 %

14.5 km/h aus 117

24.1 km/h aus WNW

4.4 C

2.6 C

2.6 C

5.6 C

0 W/m

0.00 mm

00:20

5.7 C

1011.0 hpa

92 %

17.7 km/h aus 112

32.2 km/h aus WNW

4.5 C

2.1 C

2.1 C

5.7 C

0 W/m

0.25 mm

00:25

5.6 C

1011.0 hpa

92 %

17.7 km/h aus 115

29.0 km/h aus W

4.4 C

2.0 C

2.0 C

5.6 C

0 W/m

0.00 mm

00:30

5.7 C

1011.1 hpa

92 %

14.5 km/h aus 109

24.1 km/h aus WNW

4.5 C

2.6 C

2.6 C

5.7 C

0 W/m

0.00 mm

00:35

5.7 C

1011.1 hpa

92 %

16.1 km/h aus 114

27.4 km/h aus WNW

4.5 C

2.3 C

2.3 C

5.7 C

0 W/m

0.00 mm

00:40

5.7 C

1011.1 hpa

92 %

16.1 km/h aus 113

29.0 km/h aus WNW

4.5 C

2.3 C

2.3 C

5.7 C

0 W/m

0.25 mm

00:45

5.7 C

1011.2 hpa

93 %

16.1 km/h aus 113

24.1 km/h aus WNW

4.6 C

2.4 C

2.3 C

5.7 C

0 W/m

0.00 mm

00:50

5.7 C

1011.2 hpa

93 %

17.7 km/h aus 113

29.0 km/h aus W

4.6 C

2.1 C

2.1 C

5.7 C

0 W/m

0.00 mm

00:55

5.7 C

1011.2 hpa

93 %

16.1 km/h aus 111

30.6 km/h aus WNW

4.6 C

2.4 C

2.3 C

5.7 C

0 W/m

0.00 mm

01:00

5.7 C

1011.3 hpa

93 %

14.5 km/h aus 115

24.1 km/h aus WNW

4.6 C

2.7 C

2.6 C

5.7 C

0 W/m

0.25 mm

01:05

5.7 C

1011.3 hpa

93 %

12.9 km/h aus 115

24.1 km/h aus WNW

4.6 C

2.9 C

2.9 C

5.7 C

0 W/m

0.00 mm

01:10

5.7 C

1011.3 hpa

93 %

14.5 km/h aus 112

22.5 km/h aus WNW

4.7 C

2.7 C

2.7 C

5.8 C

0 W/m

0.00 mm

01:15

5.7 C

1011.4 hpa

93 %

11.3 km/h aus 116

22.5 km/h aus W

4.7 C

3.3 C

3.3 C

5.8 C

0 W/m

0.00 mm

01:20

5.7 C

1011.4 hpa

93 %

12.9 km/h aus 114

22.5 km/h aus WNW

4.7 C

3.1 C

3.0 C

5.8 C

0 W/m

0.25 mm

01:25

5.7 C

1011.4 hpa

93 %

11.3 km/h aus 115

20.9 km/h aus W

4.7 C

3.3 C

3.3 C

5.8 C

0 W/m

0.00 mm

01:30

5.7 C

1011.4 hpa

93 %

11.3 km/h aus 113

24.1 km/h aus WNW

4.7 C

3.3 C

3.3 C

5.8 C

0 W/m

0.00 mm

01:35

5.7 C

1011.4 hpa

93 %

11.3 km/h aus 112

20.9 km/h aus NW

4.7 C

3.3 C

3.3 C

5.8 C

0 W/m

0.00 mm

01:40

5.7 C

1011.4 hpa

93 %

11.3 km/h aus 116

20.9 km/h aus WNW

4.7 C

3.3 C

3.3 C

5.8 C

0 W/m

0.25 mm

01:45

5.7 C

1011.4 hpa

93 %

12.9 km/h aus 113

22.5 km/h aus WNW

4.7 C

3.1 C

3.0 C

5.8 C

0 W/m

0.00 mm

01:50

5.7 C

1011.4 hpa

93 %

11.3 km/h aus 111

25.7 km/h aus W

4.7 C

3.3 C

3.3 C

5.8 C

0 W/m

0.00 mm

01:55

5.7 C

1011.4 hpa

93 %

14.5 km/h aus 115

24.1 km/h aus WNW

4.7 C

2.7 C

2.7 C

5.8 C

0 W/m

0.00 mm

02:00

5.7 C

1011.4 hpa

93 %

12.9 km/h aus 112

24.1 km/h aus WNW

4.7 C

3.1 C

3.0 C

5.8 C

0 W/m

0.00 mm

02:05

5.7 C

1011.4 hpa

93 %

12.9 km/h aus 110

25.7 km/h aus W

4.7 C

3.1 C

3.0 C

5.8 C

0 W/m

0.00 mm

02:10

5.7 C

1011.4 hpa

93 %

12.9 km/h aus 112

22.5 km/h aus W

4.7 C

3.1 C

3.0 C

5.8 C

0 W/m

0.00 mm

02:15

5.7 C

1011.5 hpa

93 %

11.3 km/h aus 113

19.3 km/h aus W

4.7 C

3.3 C

3.3 C

5.8 C

0 W/m

0.00 mm

02:20

5.7 C

1011.5 hpa

93 %

12.9 km/h aus 115

19.3 km/h aus W

4.7 C

3.1 C

3.0 C

5.8 C

0 W/m

0.00 mm

02:25

5.7 C

1011.5 hpa

93 %

11.3 km/h aus 112

19.3 km/h aus WNW

4.7 C

3.3 C

3.3 C

5.8 C

0 W/m

0.00 mm

02:30

5.7 C

1011.5 hpa

93 %

9.7 km/h aus 112

17.7 km/h aus WSW

4.7 C

3.7 C

3.6 C

5.8 C

0 W/m

0.00 mm

02:35

5.7 C

1011.5 hpa

93 %

11.3 km/h aus 112

22.5 km/h aus W

4.7 C

3.3 C

3.3 C

5.8 C

0 W/m

0.00 mm

02:40

5.7 C

1011.5 hpa

93 %

12.9 km/h aus 111

24.1 km/h aus WNW

4.7 C

3.1 C

3.0 C

5.8 C

0 W/m

0.00 mm

02:45

5.7 C

1011.5 hpa

93 %

12.9 km/h aus 114

20.9 km/h aus W

4.7 C

3.1 C

3.0 C

5.8 C

0 W/m

0.00 mm

02:50

5.7 C

1011.5 hpa

93 %

12.9 km/h aus 113

20.9 km/h aus WNW

4.7 C

3.1 C

3.0 C

5.8 C

0 W/m

0.00 mm

02:55

5.7 C

1011.5 hpa

93 %

14.5 km/h aus 112

24.1 km/h aus WNW

4.7 C

2.7 C

2.7 C

5.8 C

0 W/m

0.25 mm

03:00

5.7 C

1011.6 hpa

93 %

14.5 km/h aus 113

25.7 km/h aus NW

4.6 C

2.7 C

2.6 C

5.7 C

0 W/m

0.00 mm

03:05

5.7 C

1011.6 hpa

93 %

11.3 km/h aus 110

20.9 km/h aus NW

4.6 C

3.3 C

3.2 C

5.7 C

0 W/m

0.00 mm

03:10

5.7 C

1011.6 hpa

93 %

11.3 km/h aus 110

20.9 km/h aus NW

4.6 C

3.3 C

3.2 C

5.7 C

0 W/m

0.00 mm

03:15

5.7 C

1011.7 hpa

93 %

9.7 km/h aus 113

16.1 km/h aus WNW

4.6 C

3.6 C

3.5 C

5.7 C

0 W/m

0.00 mm

03:20

5.7 C

1011.7 hpa

93 %

11.3 km/h aus 113

19.3 km/h aus WNW

4.6 C

3.3 C

3.2 C

5.7 C

0 W/m

0.00 mm

03:25

5.7 C

1011.7 hpa

93 %

9.7 km/h aus 114

20.9 km/h aus NW

4.6 C

3.6 C

3.5 C

5.7 C

0 W/m

0.00 mm

03:30

5.7 C

1011.7 hpa

94 %

11.3 km/h aus 112

19.3 km/h aus W

4.8 C

3.3 C

3.2 C

5.7 C

0 W/m

0.00 mm

03:35

5.7 C

1011.7 hpa

94 %

11.3 km/h aus 113

19.3 km/h aus WNW

4.8 C

3.3 C

3.2 C

5.7 C

0 W/m

0.00 mm

03:40

5.7 C

1011.7 hpa

94 %

11.3 km/h aus 109

22.5 km/h aus W

4.8 C

3.3 C

3.2 C

5.7 C

0 W/m

0.00 mm

03:45

5.7 C

1011.7 hpa

94 %

11.3 km/h aus 111

25.7 km/h aus NW

4.8 C

3.3 C

3.2 C

5.7 C

0 W/m

0.00 mm

03:50

5.7 C

1011.7 hpa

94 %

12.9 km/h aus 103

24.1 km/h aus NW

4.8 C

2.9 C

2.9 C

5.7 C

0 W/m

0.00 mm

03:55

5.7 C

1011.7 hpa

94 %

12.9 km/h aus 113

20.9 km/h aus WNW

4.8 C

2.9 C

2.9 C

5.7 C

0 W/m

0.00 mm

04:00

5.7 C

1011.8 hpa

94 %

11.3 km/h aus 115

19.3 km/h aus WNW

4.8 C

3.3 C

3.2 C

5.7 C

0 W/m

0.00 mm

04:05

5.7 C

1011.8 hpa

94 %

11.3 km/h aus 116

17.7 km/h aus WNW

4.8 C

3.3 C

3.2 C

5.7 C

0 W/m

0.00 mm

04:10

5.7 C

1011.8 hpa

94 %

11.3 km/h aus 115

19.3 km/h aus WNW

4.8 C

3.3 C

3.2 C

5.7 C

0 W/m

0.00 mm

04:15

5.7 C

1011.9 hpa

94 %

12.9 km/h aus 112

20.9 km/h aus WNW

4.8 C

2.9 C

2.9 C

5.7 C

0 W/m

0.00 mm

04:20

5.6 C

1011.9 hpa

94 %

12.9 km/h aus 115

22.5 km/h aus WNW

4.7 C

2.9 C

2.8 C

5.7 C

0 W/m

0.00 mm

04:25

5.6 C

1011.9 hpa

93 %

11.3 km/h aus 113

19.3 km/h aus WNW

4.6 C

3.2 C

3.1 C

5.7 C

0 W/m

0.00 mm

04:30

5.6 C

1011.9 hpa

93 %

12.9 km/h aus 117

20.9 km/h aus W

4.5 C

2.8 C

2.8 C

5.6 C

0 W/m

0.00 mm

04:35

5.5 C

1011.9 hpa

93 %

11.3 km/h aus 112

20.9 km/h aus WNW

4.5 C

3.1 C

3.0 C

5.6 C

0 W/m

0.00 mm

04:40

5.5 C

1011.9 hpa

93 %

9.7 km/h aus 113

16.1 km/h aus WNW

4.5 C

3.4 C

3.3 C

5.6 C

0 W/m

0.00 mm

04:45

5.4 C

1011.9 hpa

93 %

9.7 km/h aus 115

16.1 km/h aus WNW

4.4 C

3.3 C

3.3 C

5.5 C

0 W/m

0.00 mm

04:50

5.4 C

1011.9 hpa

93 %

9.7 km/h aus 115

20.9 km/h aus W

4.4 C

3.3 C

3.3 C

5.5 C

0 W/m

0.00 mm

04:55

5.4 C

1011.9 hpa

93 %

9.7 km/h aus 116

17.7 km/h aus W

4.4 C

3.3 C

3.3 C

5.5 C

0 W/m

0.00 mm

05:00

5.4 C

1012.1 hpa

93 %

9.7 km/h aus 112

16.1 km/h aus WNW

4.3 C

3.2 C

3.2 C

5.4 C

0 W/m

0.00 mm

05:05

5.4 C

1012.1 hpa

93 %

9.7 km/h aus 111

17.7 km/h aus W

4.3 C

3.2 C

3.2 C

5.4 C

0 W/m

0.00 mm

05:10

5.4 C

1012.1 hpa

93 %

11.3 km/h aus 114

19.3 km/h aus W

4.3 C

2.8 C

2.8 C

5.4 C

0 W/m

0.00 mm

05:15

5.4 C

1012.2 hpa

93 %

11.3 km/h aus 112

17.7 km/h aus W

4.4 C

3.0 C

2.9 C

5.5 C

0 W/m

0.00 mm

05:20

5.4 C

1012.2 hpa

93 %

12.9 km/h aus 111

19.3 km/h aus W

4.4 C

2.7 C

2.7 C

5.5 C

0 W/m

0.00 mm

05:25

5.4 C

1012.2 hpa

93 %

11.3 km/h aus 114

17.7 km/h aus WNW

4.4 C

3.0 C

2.9 C

5.5 C

0 W/m

0.00 mm

05:30

5.4 C

1012.4 hpa

93 %

11.3 km/h aus 111

20.9 km/h aus WNW

4.4 C

3.0 C

2.9 C

5.5 C

0 W/m

0.00 mm

05:35

5.4 C

1012.4 hpa

93 %

8.0 km/h aus 113

14.5 km/h aus WNW

4.4 C

3.7 C

3.7 C

5.5 C

0 W/m

0.00 mm

05:40

5.4 C

1012.4 hpa

93 %

9.7 km/h aus 112

16.1 km/h aus W

4.4 C

3.3 C

3.3 C

5.5 C

0 W/m

0.00 mm

05:45

5.5 C

1012.4 hpa

93 %

9.7 km/h aus 115

19.3 km/h aus W

4.5 C

3.4 C

3.3 C

5.6 C

0 W/m

0.00 mm

05:50

5.5 C

1012.4 hpa

93 %

8.0 km/h aus 112

16.1 km/h aus WNW

4.5 C

3.8 C

3.7 C

5.6 C

0 W/m

0.00 mm

05:55

5.6 C

1012.4 hpa

93 %

11.3 km/h aus 111

19.3 km/h aus WNW

4.5 C

3.1 C

3.1 C

5.6 C

0 W/m

0.00 mm

06:00

5.6 C

1012.5 hpa

93 %

9.7 km/h aus 113

16.1 km/h aus W

4.5 C

3.4 C

3.4 C

5.6 C

0 W/m

0.00 mm

06:05

5.6 C

1012.5 hpa

93 %

9.7 km/h aus 111

19.3 km/h aus W

4.6 C

3.5 C

3.4 C

5.7 C

0 W/m

0.00 mm

06:10

5.6 C

1012.5 hpa

93 %

8.0 km/h aus 112

19.3 km/h aus WNW

4.6 C

3.9 C

3.8 C

5.7 C

0 W/m

0.00 mm

06:15

5.6 C

1012.5 hpa

93 %

9.7 km/h aus 111

20.9 km/h aus W

4.6 C

3.5 C

3.4 C

5.7 C

0 W/m

0.00 mm

06:20

5.7 C

1012.5 hpa

93 %

9.7 km/h aus 112

16.1 km/h aus W

4.6 C

3.6 C

3.5 C

5.7 C

0 W/m

0.00 mm

06:25

5.7 C

1012.5 hpa

93 %

6.4 km/h aus 113

14.5 km/h aus WNW

4.6 C

4.4 C

4.3 C

5.7 C

0 W/m

0.00 mm

06:30

5.7 C

1012.5 hpa

93 %

9.7 km/h aus 114

17.7 km/h aus WNW

4.6 C

3.6 C

3.5 C

5.7 C

0 W/m

0.00 mm

06:35

5.7 C

1012.5 hpa

93 %

9.7 km/h aus 112

20.9 km/h aus W

4.6 C

3.6 C

3.5 C

5.7 C

0 W/m

0.00 mm

06:40

5.7 C

1012.5 hpa

93 %

9.7 km/h aus 113

19.3 km/h aus NW

4.7 C

3.7 C

3.6 C

5.8 C

0 W/m

0.00 mm

06:45

5.7 C

1012.6 hpa

93 %

9.7 km/h aus 115

20.9 km/h aus WNW

4.7 C

3.7 C

3.6 C

5.8 C

0 W/m

0.00 mm

06:50

5.7 C

1012.6 hpa

93 %

8.0 km/h aus 113

19.3 km/h aus WSW

4.7 C

4.1 C

4.0 C

5.8 C

0 W/m

0.00 mm

06:55

5.7 C

1012.6 hpa

93 %

9.7 km/h aus 114

19.3 km/h aus WNW

4.7 C

3.7 C

3.6 C

5.8 C

0 W/m

0.00 mm

07:00

5.7 C

1012.9 hpa

93 %

9.7 km/h aus 112

17.7 km/h aus W

4.7 C

3.7 C

3.6 C

5.8 C

0 W/m

0.00 mm

07:05

5.7 C

1012.9 hpa

93 %

9.7 km/h aus 109

17.7 km/h aus WNW

4.7 C

3.7 C

3.6 C

5.8 C

0 W/m

0.00 mm

07:10

5.7 C

1012.9 hpa

93 %

8.0 km/h aus 111

16.1 km/h aus W

4.7 C

4.1 C

4.0 C

5.8 C

0 W/m

0.00 mm

07:15

5.7 C

1013.0 hpa

93 %

8.0 km/h aus 114

16.1 km/h aus W

4.7 C

4.1 C

4.0 C

5.8 C

0 W/m

0.00 mm

07:20

5.7 C

1013.0 hpa

93 %

9.7 km/h aus 111

19.3 km/h aus WNW

4.7 C

3.7 C

3.6 C

5.8 C

0 W/m

0.00 mm

07:25

5.7 C

1013.0 hpa

93 %

8.0 km/h aus 111

11.3 km/h aus NW

4.7 C

4.1 C

4.0 C

5.8 C

0 W/m

0.00 mm

07:30

5.7 C

1013.0 hpa

93 %

8.0 km/h aus 112

16.1 km/h aus W

4.7 C

4.1 C

4.0 C

5.8 C

0 W/m

0.00 mm

07:35

5.7 C

1013.0 hpa

93 %

8.0 km/h aus 112

14.5 km/h aus W

4.7 C

4.1 C

4.0 C

5.8 C

0 W/m

0.00 mm

07:40

5.7 C

1013.0 hpa

93 %

9.7 km/h aus 114

16.1 km/h aus WNW

4.7 C

3.7 C

3.6 C

5.8 C

0 W/m

0.00 mm

07:45

5.7 C

1013.3 hpa

93 %

11.3 km/h aus 109

17.7 km/h aus W

4.7 C

3.3 C

3.3 C

5.8 C

0 W/m

0.00 mm

07:50

5.7 C

1013.3 hpa

93 %

9.7 km/h aus 114

19.3 km/h aus WNW

4.7 C

3.7 C

3.6 C

5.8 C

0 W/m

0.00 mm

07:55

5.7 C

1013.3 hpa

93 %

8.0 km/h aus 114

16.1 km/h aus W

4.7 C

4.1 C

4.0 C

5.8 C

0 W/m

0.00 mm

08:00

5.8 C

1013.5 hpa

93 %

11.3 km/h aus 112

17.7 km/h aus W

4.7 C

3.4 C

3.3 C

5.8 C

0 W/m

0.00 mm

08:05

5.8 C

1013.5 hpa

93 %

11.3 km/h aus 111

17.7 km/h aus WNW

4.7 C

3.4 C

3.3 C

5.8 C

0 W/m

0.00 mm

08:10

5.8 C

1013.5 hpa

93 %

8.0 km/h aus 110

16.1 km/h aus WNW

4.7 C

4.1 C

4.1 C

5.8 C

0 W/m

0.25 mm

08:15

5.8 C

1013.5 hpa

93 %

6.4 km/h aus 113

12.9 km/h aus WNW

4.8 C

4.6 C

4.6 C

5.9 C

0 W/m

0.00 mm

08:20

5.8 C

1013.5 hpa

93 %

8.0 km/h aus 114

19.3 km/h aus WNW

4.8 C

4.2 C

4.1 C

5.9 C

0 W/m

0.00 mm

08:25

5.8 C

1013.5 hpa

93 %

8.0 km/h aus 111

14.5 km/h aus WNW

4.8 C

4.2 C

4.1 C

5.9 C

0 W/m

0.00 mm

08:30

5.9 C

1013.4 hpa

93 %

8.0 km/h aus 111

17.7 km/h aus WNW

4.8 C

4.2 C

4.2 C

5.9 C

0 W/m

0.00 mm

08:35

5.9 C

1013.4 hpa

93 %

11.3 km/h aus 112

22.5 km/h aus WNW

4.8 C

3.6 C

3.5 C

5.9 C

0 W/m

0.00 mm

08:40

5.9 C

1013.4 hpa

94 %

8.0 km/h aus 110

14.5 km/h aus W

5.1 C

4.3 C

4.2 C

6.0 C

0 W/m

0.00 mm

08:45

5.9 C

1013.4 hpa

94 %

8.0 km/h aus 111

16.1 km/h aus WNW

5.1 C

4.3 C

4.2 C

6.0 C

0 W/m

0.00 mm

08:50

6.0 C

1013.4 hpa

94 %

8.0 km/h aus 114

19.3 km/h aus W

5.1 C

4.4 C

4.3 C

6.1 C

0 W/m

0.00 mm

08:55

6.1 C

1013.4 hpa

94 %

8.0 km/h aus 107

16.1 km/h aus W

5.2 C

4.4 C

4.4 C

6.1 C

0 W/m

0.00 mm

09:00

6.1 C

1013.4 hpa

94 %

8.0 km/h aus 112

19.3 km/h aus NW

5.2 C

4.4 C

4.4 C

6.1 C

0 W/m

0.00 mm

09:05

6.1 C

1013.4 hpa

94 %

11.3 km/h aus 111

20.9 km/h aus WNW

5.2 C

3.8 C

3.8 C

6.2 C

0 W/m

0.00 mm

09:10

6.2 C

1013.4 hpa

93 %

9.7 km/h aus 114

17.7 km/h aus WNW

5.1 C

4.2 C

4.1 C

6.2 C

0 W/m

0.00 mm

09:15

6.2 C

1013.5 hpa

93 %

11.3 km/h aus 112

19.3 km/h aus W

5.1 C

3.9 C

3.8 C

6.2 C

0 W/m

0.00 mm

09:20

6.2 C

1013.5 hpa

93 %

9.7 km/h aus 115

19.3 km/h aus W

5.1 C

4.2 C

4.1 C

6.2 C

0 W/m

0.00 mm

09:25

6.2 C

1013.5 hpa

93 %

8.0 km/h aus 113

16.1 km/h aus W

5.1 C

4.6 C

4.5 C

6.2 C

0 W/m

0.00 mm

09:30

6.2 C

1013.5 hpa

93 %

6.4 km/h aus 114

14.5 km/h aus WSW

5.2 C

5.1 C

5.0 C

6.3 C

0 W/m

0.00 mm

09:35

6.3 C

1013.5 hpa

93 %

8.0 km/h aus 112

17.7 km/h aus WSW

5.2 C

4.7 C

4.7 C

6.3 C

0 W/m

0.00 mm

09:40

6.3 C

1013.5 hpa

93 %

6.4 km/h aus 108

16.1 km/h aus WNW

5.2 C

5.1 C

5.1 C

6.3 C

0 W/m

0.00 mm

09:45

6.3 C

1013.6 hpa

93 %

8.0 km/h aus 115

14.5 km/h aus WNW

5.2 C

4.7 C

4.7 C

6.3 C

0 W/m

0.00 mm

09:50

6.3 C

1013.6 hpa

93 %

11.3 km/h aus 118

19.3 km/h aus WNW

5.3 C

4.1 C

4.1 C

6.4 C

0 W/m

0.00 mm

09:55

6.3 C

1013.6 hpa

93 %

8.0 km/h aus 112

16.1 km/h aus WNW

5.3 C

4.8 C

4.7 C

6.4 C

0 W/m

0.00 mm

10:00

6.4 C

1013.5 hpa

93 %

8.0 km/h aus 113

19.3 km/h aus W

5.3 C

4.8 C

4.8 C

6.4 C

0 W/m

0.00 mm

10:05

6.4 C

1013.5 hpa

93 %

11.3 km/h aus 113

17.7 km/h aus WSW

5.4 C

4.2 C

4.2 C

6.5 C

0 W/m

0.00 mm

10:10

6.4 C

1013.5 hpa

93 %

11.3 km/h aus 111

19.3 km/h aus W

5.4 C

4.2 C

4.2 C

6.5 C

0 W/m

0.00 mm

10:15

6.5 C

1013.7 hpa

93 %

11.3 km/h aus 114

22.5 km/h aus W

5.4 C

4.3 C

4.2 C

6.6 C

0 W/m

0.00 mm

10:20

6.5 C

1013.7 hpa

93 %

11.3 km/h aus 115

19.3 km/h aus WNW

5.4 C

4.3 C

4.2 C

6.6 C

0 W/m

0.00 mm

10:25

6.5 C

1013.7 hpa

93 %

14.5 km/h aus 110

24.1 km/h aus WNW

5.4 C

3.6 C

3.6 C

6.6 C

0 W/m

0.00 mm

10:30

6.5 C

1013.7 hpa

93 %

11.3 km/h aus 107

22.5 km/h aus WSW

5.4 C

4.3 C

4.2 C

6.6 C

0 W/m

0.00 mm

10:35

6.6 C

1013.7 hpa

92 %

12.9 km/h aus 112

20.9 km/h aus W

5.3 C

4.1 C

4.0 C

6.6 C

0 W/m

0.00 mm

10:40

6.6 C

1013.7 hpa

92 %

11.3 km/h aus 115

19.3 km/h aus W

5.3 C

4.4 C

4.3 C

6.6 C

0 W/m

0.00 mm

10:45

6.6 C

1013.9 hpa

92 %

9.7 km/h aus 111

20.9 km/h aus W

5.4 C

4.7 C

4.7 C

6.7 C

0 W/m

0.00 mm

10:50

6.7 C

1013.9 hpa

92 %

12.9 km/h aus 112

22.5 km/h aus W

5.5 C

4.2 C

4.1 C

6.7 C

0 W/m

0.00 mm

10:55

6.7 C

1013.9 hpa

92 %

12.9 km/h aus 109

20.9 km/h aus W

5.5 C

4.2 C

4.1 C

6.7 C

0 W/m

0.00 mm

11:00

6.7 C

1013.9 hpa

92 %

11.3 km/h aus 112

20.9 km/h aus WNW

5.5 C

4.6 C

4.5 C

6.8 C

0 W/m

0.00 mm

11:05

6.7 C

1013.9 hpa

92 %

9.7 km/h aus 115

20.9 km/h aus WNW

5.5 C

4.8 C

4.8 C

6.8 C

0 W/m

0.00 mm

11:10

6.8 C

1013.9 hpa

92 %

6.4 km/h aus 115

12.9 km/h aus W

5.6 C

5.7 C

5.6 C

6.8 C

0 W/m

0.00 mm

11:15

6.8 C

1013.9 hpa

92 %

8.0 km/h aus 114

17.7 km/h aus SW

5.6 C

5.3 C

5.2 C

6.8 C

0 W/m

0.00 mm

11:20

6.8 C

1013.9 hpa

92 %

8.0 km/h aus 107

20.9 km/h aus W

5.6 C

5.3 C

5.3 C

6.9 C

0 W/m

0.00 mm

11:25

6.8 C

1013.9 hpa

92 %

9.7 km/h aus 110

19.3 km/h aus W

5.6 C

5.0 C

4.9 C

6.9 C

0 W/m

0.00 mm

11:30

6.8 C

1014.0 hpa

92 %

8.0 km/h aus 111

19.3 km/h aus W

5.6 C

5.3 C

5.3 C

6.9 C

0 W/m

0.00 mm

11:35

6.8 C

1014.0 hpa

92 %

8.0 km/h aus 113

16.1 km/h aus W

5.6 C

5.3 C

5.3 C

6.9 C

0 W/m

0.00 mm

11:40

6.8 C

1014.0 hpa

92 %

9.7 km/h aus 113

16.1 km/h aus W

5.6 C

5.0 C

4.9 C

6.9 C

0 W/m

0.00 mm

11:45

6.8 C

1014.0 hpa

92 %

6.4 km/h aus 113

12.9 km/h aus WSW

5.6 C

5.8 C

5.7 C

6.9 C

0 W/m

0.00 mm

11:50

6.8 C

1014.0 hpa

92 %

8.0 km/h aus 115

16.1 km/h aus W

5.6 C

5.3 C

5.3 C

6.9 C

0 W/m

0.00 mm

11:55

6.8 C

1014.0 hpa

92 %

9.7 km/h aus 114

17.7 km/h aus WSW

5.6 C

5.0 C

4.9 C

6.9 C

0 W/m

0.00 mm

12:00

6.8 C

1014.0 hpa

92 %

9.7 km/h aus 110

17.7 km/h aus WSW

5.6 C

5.0 C

4.9 C

6.9 C

0 W/m

0.00 mm

12:05

6.8 C

1014.0 hpa

92 %

9.7 km/h aus 108

19.3 km/h aus W

5.6 C

5.0 C

4.9 C

6.9 C

0 W/m

0.00 mm

12:10

6.8 C

1014.0 hpa

92 %

12.9 km/h aus 112

20.9 km/h aus WSW

5.6 C

4.4 C

4.3 C

6.9 C

0 W/m

0.00 mm

12:15

6.8 C

1014.0 hpa

92 %

9.7 km/h aus 115

17.7 km/h aus WSW

5.6 C

4.9 C

4.8 C

6.8 C

0 W/m

0.00 mm

12:20

6.8 C

1014.0 hpa

92 %

11.3 km/h aus 116

20.9 km/h aus WSW

5.6 C

4.6 C

4.6 C

6.8 C

0 W/m

0.00 mm

12:25

6.8 C

1014.0 hpa

92 %

9.7 km/h aus 116

20.9 km/h aus W

5.6 C

4.9 C

4.8 C

6.8 C

0 W/m

0.00 mm

12:30

6.8 C

1013.8 hpa

92 %

11.3 km/h aus 109

19.3 km/h aus WSW

5.6 C

4.6 C

4.6 C

6.8 C

0 W/m

0.00 mm

12:35

6.8 C

1013.8 hpa

92 %

9.7 km/h aus 114

16.1 km/h aus WSW

5.6 C

4.9 C

4.8 C

6.8 C

0 W/m

0.00 mm

12:40

6.8 C

1013.8 hpa

92 %

11.3 km/h aus 116

19.3 km/h aus WSW

5.6 C

4.7 C

4.7 C

6.9 C

0 W/m

0.00 mm

12:45

6.8 C

1013.7 hpa

93 %

9.7 km/h aus 115

19.3 km/h aus W

5.8 C

5.1 C

4.9 C

6.9 C

0 W/m

0.00 mm

12:50

6.8 C

1013.7 hpa

93 %

12.9 km/h aus 114

22.5 km/h aus WSW

5.8 C

4.4 C

4.3 C

6.9 C

0 W/m

0.00 mm

12:55

6.9 C

1013.7 hpa

93 %

14.5 km/h aus 114

20.9 km/h aus W

5.8 C

4.2 C

4.1 C

7.0 C

0 W/m

0.00 mm

13:00

6.9 C

1013.5 hpa

93 %

12.9 km/h aus 109

19.3 km/h aus W

5.9 C

4.6 C

4.4 C

7.1 C

0 W/m

0.00 mm

13:05

6.9 C

1013.5 hpa

93 %

12.9 km/h aus 113

20.9 km/h aus W

5.9 C

4.6 C

4.4 C

7.1 C

0 W/m

0.00 mm

13:10

7.0 C

1013.5 hpa

93 %

8.0 km/h aus 115

16.1 km/h aus WSW

5.9 C

5.6 C

5.5 C

7.1 C

0 W/m

0.00 mm

13:15

7.0 C

1013.5 hpa

93 %

9.7 km/h aus 114

19.3 km/h aus WSW

5.9 C

5.2 C

5.1 C

7.1 C

0 W/m

0.00 mm

13:20

7.1 C

1013.5 hpa

93 %

11.3 km/h aus 112

25.7 km/h aus WSW

6.0 C

5.0 C

4.9 C

7.2 C

0 W/m

0.00 mm

13:25

7.1 C

1013.5 hpa

93 %

12.9 km/h aus 113

24.1 km/h aus W

6.1 C

4.8 C

4.7 C

7.2 C

0 W/m

0.00 mm

13:30

7.1 C

1013.4 hpa

93 %

12.9 km/h aus 114

19.3 km/h aus SW

6.1 C

4.8 C

4.7 C

7.2 C

0 W/m

0.00 mm

13:35

7.1 C

1013.4 hpa

93 %

12.9 km/h aus 113

24.1 km/h aus W

6.1 C

4.8 C

4.7 C

7.2 C

0 W/m

0.00 mm

13:40

7.2 C

1013.4 hpa

93 %

12.9 km/h aus 110

22.5 km/h aus W

6.1 C

4.8 C

4.7 C

7.3 C

0 W/m

0.00 mm

13:45

7.2 C

1013.4 hpa

93 %

11.3 km/h aus 112

24.1 km/h aus SW

6.1 C

5.2 C

5.1 C

7.3 C

0 W/m

0.00 mm

13:50

7.2 C

1013.4 hpa

93 %

12.9 km/h aus 113

22.5 km/h aus W

6.1 C

4.8 C

4.7 C

7.3 C

0 W/m

0.00 mm

13:55

7.1 C

1013.4 hpa

93 %

14.5 km/h aus 111

24.1 km/h aus W

6.1 C

4.4 C

4.3 C

7.2 C

0 W/m

0.00 mm

14:00

7.1 C

1013.4 hpa

93 %

12.9 km/h aus 111

22.5 km/h aus W

6.0 C

4.7 C

4.6 C

7.2 C

0 W/m

0.00 mm

14:05

7.0 C

1013.4 hpa

92 %

12.9 km/h aus 114

20.9 km/h aus WSW

5.8 C

4.6 C

4.5 C

7.1 C

0 W/m

0.00 mm

14:10

7.0 C

1013.4 hpa

93 %

14.5 km/h aus 108

25.7 km/h aus WSW

5.9 C

4.3 C

4.2 C

7.1 C

0 W/m

0.00 mm

14:15

7.0 C

1013.3 hpa

93 %

14.5 km/h aus 113

20.9 km/h aus WSW

5.9 C

4.3 C

4.2 C

7.1 C

0 W/m

0.00 mm

14:20

7.1 C

1013.3 hpa

93 %

11.3 km/h aus 114

24.1 km/h aus WSW

6.0 C

5.0 C

4.9 C

7.2 C

0 W/m

0.00 mm

14:25

7.1 C

1013.3 hpa

93 %

9.7 km/h aus 111

16.1 km/h aus WSW

6.1 C

5.4 C

5.3 C

7.2 C

0 W/m

0.00 mm

14:30

7.2 C

1013.2 hpa

93 %

12.9 km/h aus 113

25.7 km/h aus WSW

6.1 C

4.8 C

4.7 C

7.3 C

0 W/m

0.00 mm

14:35

7.2 C

1013.2 hpa

93 %

16.1 km/h aus 113

22.5 km/h aus SW

6.2 C

4.3 C

4.2 C

7.3 C

0 W/m

0.00 mm

14:40

7.2 C

1013.2 hpa

93 %

11.3 km/h aus 114

22.5 km/h aus W

6.2 C

5.2 C

5.1 C

7.3 C

0 W/m

0.00 mm

14:45

7.3 C

1013.2 hpa

92 %

11.3 km/h aus 112

20.9 km/h aus W

6.1 C

5.3 C

5.2 C

7.4 C

0 W/m

0.00 mm

14:50

7.4 C

1013.2 hpa

92 %

12.9 km/h aus 114

24.1 km/h aus W

6.2 C

5.1 C

5.0 C

7.5 C

0 W/m

0.00 mm

14:55

7.4 C

1013.2 hpa

92 %

14.5 km/h aus 112

20.9 km/h aus WSW

6.2 C

4.8 C

4.7 C

7.6 C

0 W/m

0.00 mm

15:00

7.4 C

1013.1 hpa

92 %

14.5 km/h aus 114

24.1 km/h aus W

6.2 C

4.8 C

4.7 C

7.6 C

0 W/m

0.00 mm

15:05

7.4 C

1013.1 hpa

92 %

11.3 km/h aus 109

19.3 km/h aus WNW

6.2 C

5.5 C

5.4 C

7.6 C

0 W/m

0.00 mm

15:10

7.4 C

1013.1 hpa

92 %

9.7 km/h aus 111

24.1 km/h aus WSW

6.2 C

5.8 C

5.7 C

7.6 C

0 W/m

0.00 mm

15:15

7.5 C

1013.1 hpa

92 %

14.5 km/h aus 112

24.1 km/h aus WSW

6.3 C

4.9 C

4.8 C

7.6 C

0 W/m

0.00 mm

15:20

7.6 C

1013.1 hpa

91 %

12.9 km/h aus 112

22.5 km/h aus W

6.2 C

5.2 C

5.2 C

7.6 C

0 W/m

0.00 mm

15:25

7.6 C

1013.1 hpa

91 %

12.9 km/h aus 111

20.9 km/h aus SW

6.2 C

5.2 C

5.2 C

7.6 C

0 W/m

0.00 mm

15:30

7.6 C

1013.2 hpa

91 %

12.9 km/h aus 117

22.5 km/h aus SW

6.2 C

5.2 C

5.2 C

7.6 C

0 W/m

0.00 mm

15:35

7.6 C

1013.2 hpa

91 %

14.5 km/h aus 115

24.1 km/h aus W

6.2 C

4.9 C

4.8 C

7.6 C

0 W/m

0.00 mm

15:40

7.6 C

1013.2 hpa

91 %

11.3 km/h aus 114

24.1 km/h aus WNW

6.2 C

5.6 C

5.5 C

7.6 C

0 W/m

0.00 mm

15:45

7.6 C

1013.1 hpa

91 %

12.9 km/h aus 113

24.1 km/h aus WSW

6.2 C

5.2 C

5.2 C

7.6 C

0 W/m

0.00 mm

15:50

7.6 C

1013.1 hpa

91 %

9.7 km/h aus 115

19.3 km/h aus WSW

6.2 C

5.8 C

5.8 C

7.6 C

0 W/m

0.00 mm

15:55

7.5 C

1013.1 hpa

91 %

11.3 km/h aus 113

20.9 km/h aus SW

6.1 C

5.5 C

5.4 C

7.6 C

0 W/m

0.00 mm

16:00

7.5 C

1013.1 hpa

91 %

9.7 km/h aus 114

17.7 km/h aus WSW

6.1 C

5.8 C

5.7 C

7.6 C

0 W/m

0.00 mm

16:05

7.5 C

1013.1 hpa

91 %

12.9 km/h aus 112

22.5 km/h aus W

6.1 C

5.2 C

5.1 C

7.6 C

0 W/m

0.00 mm

16:10

7.4 C

1013.1 hpa

91 %

14.5 km/h aus 117

24.1 km/h aus SW

6.1 C

4.8 C

4.7 C

7.5 C

0 W/m

0.00 mm

16:15

7.4 C

1013.0 hpa

91 %

12.9 km/h aus 109

22.5 km/h aus SW

6.0 C

5.1 C

5.0 C

7.4 C

0 W/m

0.00 mm

16:20

7.3 C

1013.0 hpa

91 %

14.5 km/h aus 113

25.7 km/h aus WSW

6.0 C

4.6 C

4.6 C

7.4 C

0 W/m

0.00 mm

16:25

7.3 C

1013.0 hpa

91 %

11.3 km/h aus 112

24.1 km/h aus W

6.0 C

5.3 C

5.2 C

7.4 C

0 W/m

0.00 mm

16:30

7.3 C

1013.1 hpa

91 %

12.9 km/h aus 110

22.5 km/h aus WSW

6.0 C

4.9 C

4.9 C

7.4 C

0 W/m

0.00 mm

16:35

7.3 C

1013.1 hpa

91 %

16.1 km/h aus 110

30.6 km/h aus W

6.0 C

4.3 C

4.3 C

7.4 C

0 W/m

0.00 mm

16:40

7.3 C

1013.1 hpa

91 %

12.9 km/h aus 109

22.5 km/h aus W

6.0 C

4.9 C

4.9 C

7.4 C

0 W/m

0.00 mm

16:45

7.3 C

1013.3 hpa

91 %

12.9 km/h aus 112

20.9 km/h aus W

5.9 C

4.9 C

4.8 C

7.3 C

0 W/m

0.00 mm

16:50

7.3 C

1013.3 hpa

91 %

11.3 km/h aus 114

19.3 km/h aus W

5.9 C

5.2 C

5.2 C

7.3 C

0 W/m

0.00 mm

16:55

7.3 C

1013.3 hpa

91 %

11.3 km/h aus 115

20.9 km/h aus W

5.9 C

5.2 C

5.2 C

7.3 C

0 W/m

0.00 mm

17:00

7.3 C

1013.3 hpa

91 %

9.7 km/h aus 111

19.3 km/h aus W

5.9 C

5.5 C

5.4 C

7.3 C

0 W/m

0.00 mm

17:05

7.3 C

1013.3 hpa

91 %

12.9 km/h aus 110

22.5 km/h aus WSW

5.9 C

4.9 C

4.8 C

7.3 C

0 W/m

0.00 mm

17:10

7.3 C

1013.3 hpa

91 %

12.9 km/h aus 109

22.5 km/h aus WSW

5.9 C

4.9 C

4.8 C

7.3 C

0 W/m

0.00 mm

17:15

7.3 C

1013.4 hpa

91 %

8.0 km/h aus 116

20.9 km/h aus WSW

5.9 C

5.8 C

5.8 C

7.3 C

0 W/m

0.00 mm

17:20

7.3 C

1013.4 hpa

91 %

11.3 km/h aus 112

20.9 km/h aus WSW

5.9 C

5.2 C

5.2 C

7.3 C

0 W/m

0.00 mm

17:25

7.3 C

1013.4 hpa

91 %

11.3 km/h aus 109

17.7 km/h aus WNW

5.9 C

5.2 C

5.2 C

7.3 C

0 W/m

0.00 mm

17:30

7.3 C

1013.5 hpa

91 %

9.7 km/h aus 109

16.1 km/h aus WSW

5.9 C

5.5 C

5.4 C

7.3 C

0 W/m

0.00 mm

17:35

7.2 C

1013.5 hpa

91 %

8.0 km/h aus 111

17.7 km/h aus WSW

5.9 C

5.8 C

5.7 C

7.3 C

0 W/m

0.00 mm

17:40

7.2 C

1013.5 hpa

92 %

9.7 km/h aus 110

17.7 km/h aus WSW

6.0 C

5.4 C

5.4 C

7.3 C

0 W/m

0.00 mm

17:45

7.2 C

1013.5 hpa

92 %

8.0 km/h aus 113

11.3 km/h aus W

6.0 C

5.8 C

5.7 C

7.3 C

0 W/m

0.25 mm

17:50

7.2 C

1013.5 hpa

92 %

8.0 km/h aus 108

12.9 km/h aus W

6.0 C

5.8 C

5.7 C

7.3 C

0 W/m

0.00 mm

17:55

7.2 C

1013.5 hpa

92 %

9.7 km/h aus 115

17.7 km/h aus WSW

6.0 C

5.4 C

5.4 C

7.3 C

0 W/m

0.00 mm

18:00

7.2 C

1013.5 hpa

92 %

6.4 km/h aus 116

11.3 km/h aus WSW

6.0 C

6.2 C

6.1 C

7.2 C

0 W/m

0.00 mm

18:05

7.2 C

1013.5 hpa

92 %

6.4 km/h aus 113

14.5 km/h aus WNW

6.0 C

6.2 C

6.1 C

7.2 C

0 W/m

0.00 mm

18:10

7.2 C

1013.5 hpa

92 %

8.0 km/h aus 114

16.1 km/h aus W

6.0 C

5.7 C

5.7 C

7.2 C

0 W/m

0.00 mm

18:15

7.2 C

1013.8 hpa

93 %

8.0 km/h aus 113

11.3 km/h aus W

6.1 C

5.8 C

5.7 C

7.3 C

0 W/m

0.00 mm

18:20

7.1 C

1013.8 hpa

93 %

6.4 km/h aus 115

11.3 km/h aus WSW

6.1 C

6.2 C

6.1 C

7.2 C

0 W/m

0.00 mm

18:25

7.1 C

1013.8 hpa

93 %

6.4 km/h aus 109

11.3 km/h aus W

6.1 C

6.2 C

6.1 C

7.2 C

0 W/m

0.00 mm

18:30

7.1 C

1013.9 hpa

93 %

6.4 km/h aus 112

11.3 km/h aus W

6.1 C

6.2 C

6.1 C

7.2 C

0 W/m

0.00 mm

18:35

7.1 C

1013.9 hpa

93 %

6.4 km/h aus 111

11.3 km/h aus W

6.0 C

6.1 C

5.9 C

7.2 C

0 W/m

0.25 mm

18:40

7.1 C

1013.9 hpa

93 %

6.4 km/h aus 115

14.5 km/h aus WSW

6.1 C

6.2 C

6.1 C

7.2 C

0 W/m

0.00 mm

18:45

7.1 C

1014.0 hpa

93 %

9.7 km/h aus 112

16.1 km/h aus WSW

6.0 C

5.3 C

5.2 C

7.2 C

0 W/m

0.00 mm

18:50

7.1 C

1014.0 hpa

93 %

6.4 km/h aus 111

11.3 km/h aus W

6.0 C

6.1 C

5.9 C

7.2 C

0 W/m

0.00 mm

18:55

7.1 C

1014.0 hpa

93 %

9.7 km/h aus 115

17.7 km/h aus W

6.0 C

5.3 C

5.2 C

7.2 C

0 W/m

0.00 mm

19:00

7.1 C

1014.0 hpa

93 %

8.0 km/h aus 113

16.1 km/h aus W

6.1 C

5.7 C

5.6 C

7.2 C

0 W/m

0.00 mm

19:05

7.1 C

1014.0 hpa

93 %

8.0 km/h aus 111

14.5 km/h aus W

6.1 C

5.7 C

5.6 C

7.2 C

0 W/m

0.00 mm

19:10

7.1 C

1014.0 hpa

94 %

6.4 km/h aus 114

14.5 km/h aus W

6.2 C

6.2 C

6.1 C

7.2 C

0 W/m

0.00 mm

19:15

7.1 C

1014.0 hpa

94 %

6.4 km/h aus 114

14.5 km/h aus WSW

6.2 C

6.2 C

6.1 C

7.2 C

0 W/m

0.00 mm

19:20

7.1 C

1014.0 hpa

94 %

6.4 km/h aus 112

16.1 km/h aus WSW

6.2 C

6.2 C

6.1 C

7.2 C

0 W/m

0.00 mm

19:25

7.1 C

1014.0 hpa

94 %

8.0 km/h aus 113

16.1 km/h aus W

6.2 C

5.7 C

5.6 C

7.2 C

0 W/m

0.00 mm

19:30

7.2 C

1013.9 hpa

94 %

6.4 km/h aus 114

11.3 km/h aus W

6.3 C

6.2 C

6.1 C

7.3 C

0 W/m

0.00 mm

19:35

7.2 C

1013.9 hpa

94 %

6.4 km/h aus 112

14.5 km/h aus WSW

6.3 C

6.2 C

6.1 C

7.3 C

0 W/m

0.00 mm

19:40

7.2 C

1013.9 hpa

94 %

8.0 km/h aus 113

14.5 km/h aus WSW

6.3 C

5.8 C

5.7 C

7.3 C

0 W/m

0.25 mm

19:45

7.2 C

1013.7 hpa

94 %

6.4 km/h aus 117

16.1 km/h aus WSW

6.3 C

6.2 C

6.1 C

7.3 C

0 W/m

0.00 mm

19:50

7.2 C

1013.7 hpa

94 %

6.4 km/h aus 112

11.3 km/h aus W

6.3 C

6.2 C

6.1 C

7.3 C

0 W/m

0.00 mm

19:55

7.2 C

1013.7 hpa

94 %

6.4 km/h aus 115

14.5 km/h aus W

6.3 C

6.2 C

6.1 C

7.3 C

0 W/m

0.00 mm

20:00

7.2 C

1013.9 hpa

94 %

8.0 km/h aus 113

17.7 km/h aus WSW

6.3 C

5.8 C

5.7 C

7.3 C

0 W/m

0.00 mm

20:05

7.2 C

1013.9 hpa

94 %

6.4 km/h aus 114

11.3 km/h aus W

6.3 C

6.2 C

6.1 C

7.3 C

0 W/m

0.00 mm

20:10

7.2 C

1013.9 hpa

94 %

4.8 km/h aus 111

9.7 km/h aus W

6.3 C

6.7 C

6.6 C

7.3 C

0 W/m

0.00 mm

20:15

7.2 C

1013.9 hpa

94 %

8.0 km/h aus 112

14.5 km/h aus WSW

6.3 C

5.8 C

5.7 C

7.3 C

0 W/m

0.00 mm

20:20

7.2 C

1013.9 hpa

94 %

6.4 km/h aus 112

12.9 km/h aus W

6.3 C

6.3 C

6.2 C

7.3 C

0 W/m

0.00 mm

20:25

7.2 C

1013.9 hpa

94 %

6.4 km/h aus 112

14.5 km/h aus W

6.3 C

6.3 C

6.2 C

7.3 C

0 W/m

0.00 mm

20:30

7.2 C

1014.0 hpa

94 %

8.0 km/h aus 114

11.3 km/h aus W

6.3 C

5.8 C

5.7 C

7.3 C

0 W/m

0.00 mm

20:35

7.2 C

1014.0 hpa

94 %

8.0 km/h aus 113

11.3 km/h aus W

6.3 C

5.8 C

5.7 C

7.3 C

0 W/m

0.00 mm

20:40

7.2 C

1014.0 hpa

94 %

6.4 km/h aus 111

12.9 km/h aus SW

6.3 C

6.3 C

6.2 C

7.3 C

0 W/m

0.00 mm

20:45

7.2 C

1014.0 hpa

94 %

6.4 km/h aus 115

9.7 km/h aus W

6.3 C

6.3 C

6.2 C

7.3 C

0 W/m

0.00 mm

20:50

7.2 C

1014.0 hpa

95 %

4.8 km/h aus 114

9.7 km/h aus WSW

6.5 C

6.8 C

6.7 C

7.3 C

0 W/m

0.00 mm

20:55

7.2 C

1014.0 hpa

95 %

6.4 km/h aus 113

16.1 km/h aus WNW

6.5 C

6.3 C

6.2 C

7.3 C

0 W/m

0.00 mm

21:00

7.2 C

1014.1 hpa

95 %

6.4 km/h aus 111

11.3 km/h aus W

6.5 C

6.3 C

6.2 C

7.3 C

0 W/m

0.00 mm

21:05

7.2 C

1014.1 hpa

95 %

4.8 km/h aus 116

14.5 km/h aus W

6.5 C

6.8 C

6.7 C

7.3 C

0 W/m

0.00 mm

21:10

7.2 C

1014.1 hpa

95 %

6.4 km/h aus 114

11.3 km/h aus W

6.5 C

6.3 C

6.2 C

7.3 C

0 W/m

0.00 mm

21:15

7.2 C

1014.0 hpa

95 %

3.2 km/h aus 113

8.0 km/h aus W

6.5 C

7.3 C

7.2 C

7.3 C

0 W/m

0.00 mm

21:20

7.3 C

1014.0 hpa

95 %

6.4 km/h aus 113

11.3 km/h aus W

6.5 C

6.3 C

6.2 C

7.4 C

0 W/m

0.00 mm

21:25

7.3 C

1014.0 hpa

95 %

6.4 km/h aus 113

11.3 km/h aus W

6.5 C

6.3 C

6.2 C

7.4 C

0 W/m

0.00 mm

21:30

7.3 C

1014.0 hpa

95 %

6.4 km/h aus 117

11.3 km/h aus W

6.5 C

6.3 C

6.2 C

7.4 C

0 W/m

0.00 mm

21:35

7.3 C

1014.0 hpa

95 %

6.4 km/h aus 113

9.7 km/h aus WSW

6.5 C

6.3 C

6.2 C

7.4 C

0 W/m

0.00 mm

21:40

7.3 C

1014.0 hpa

95 %

6.4 km/h aus 113

9.7 km/h aus W

6.5 C

6.3 C

6.2 C

7.4 C

0 W/m

0.00 mm

21:45

7.3 C

1014.0 hpa

95 %

4.8 km/h aus 113

9.7 km/h aus W

6.5 C

6.8 C

6.7 C

7.4 C

0 W/m

0.00 mm

21:50

7.3 C

1014.0 hpa

95 %

3.2 km/h aus 112

9.7 km/h aus W

6.5 C

7.4 C

7.3 C

7.4 C

0 W/m

0.00 mm

21:55

7.3 C

1014.0 hpa

95 %

6.4 km/h aus 110

9.7 km/h aus W

6.6 C

6.4 C

6.3 C

7.4 C

0 W/m

0.00 mm

22:00

7.3 C

1014.0 hpa

95 %

4.8 km/h aus 113

9.7 km/h aus W

6.6 C

6.9 C

6.8 C

7.4 C

0 W/m

0.00 mm

22:05

7.3 C

1014.0 hpa

95 %

4.8 km/h aus 108

8.0 km/h aus WSW

6.6 C

6.9 C

6.8 C

7.4 C

0 W/m

0.00 mm

22:10

7.3 C

1014.0 hpa

95 %

3.2 km/h aus 110

6.4 km/h aus WSW

6.6 C

7.4 C

7.3 C

7.4 C

0 W/m

0.00 mm

22:15

7.3 C

1013.9 hpa

95 %

3.2 km/h aus 112

6.4 km/h aus WSW

6.6 C

7.4 C

7.3 C

7.4 C

0 W/m

0.00 mm

22:20

7.3 C

1013.9 hpa

95 %

4.8 km/h aus 105

8.0 km/h aus WSW

6.6 C

6.9 C

6.8 C

7.4 C

0 W/m

0.00 mm

22:25

7.3 C

1013.9 hpa

95 %

4.8 km/h aus 114

8.0 km/h aus W

6.6 C

6.9 C

6.8 C

7.4 C

0 W/m

0.00 mm

22:30

7.3 C

1014.0 hpa

95 %

6.4 km/h aus 112

14.5 km/h aus W

6.6 C

6.4 C

6.3 C

7.4 C

0 W/m

0.00 mm

22:35

7.3 C

1014.0 hpa

95 %

4.8 km/h aus 113

8.0 km/h aus W

6.6 C

6.9 C

6.8 C

7.4 C

0 W/m

0.00 mm

22:40

7.3 C

1014.0 hpa

95 %

6.4 km/h aus 115

9.7 km/h aus W

6.6 C

6.4 C

6.3 C

7.4 C

0 W/m

0.00 mm

22:45

7.3 C

1014.0 hpa

95 %

4.8 km/h aus 111

8.0 km/h aus W

6.6 C

6.9 C

6.8 C

7.4 C

0 W/m

0.00 mm

22:50

7.3 C

1014.0 hpa

95 %

4.8 km/h aus 112

6.4 km/h aus WSW

6.6 C

6.9 C

6.8 C

7.4 C

0 W/m

0.00 mm

22:55

7.3 C

1014.0 hpa

95 %

4.8 km/h aus 114

9.7 km/h aus W

6.6 C

6.9 C

6.8 C

7.4 C

0 W/m

0.00 mm

23:00

7.3 C

1013.9 hpa

95 %

4.8 km/h aus 111

9.7 km/h aus WSW

6.6 C

6.9 C

6.8 C

7.4 C

0 W/m

0.00 mm

23:05

7.4 C

1013.9 hpa

95 %

4.8 km/h aus 114

8.0 km/h aus WSW

6.6 C

7.0 C

6.9 C

7.5 C

0 W/m

0.00 mm

23:10

7.4 C

1013.9 hpa

95 %

3.2 km/h aus 111

9.7 km/h aus WSW

6.6 C

7.5 C

7.4 C

7.5 C

0 W/m

0.00 mm

23:15

7.4 C

1014.0 hpa

95 %

4.8 km/h aus 115

9.7 km/h aus W

6.6 C

7.0 C

6.9 C

7.5 C

0 W/m

0.00 mm

23:20

7.3 C

1014.0 hpa

95 %

3.2 km/h aus 115

8.0 km/h aus W

6.6 C

7.4 C

7.3 C

7.4 C

0 W/m

0.00 mm

23:25

7.4 C

1014.0 hpa

95 %

3.2 km/h aus 111

8.0 km/h aus W

6.6 C

7.5 C

7.4 C

7.5 C

0 W/m

0.00 mm

23:30

7.4 C

1013.8 hpa

95 %

3.2 km/h aus 111

6.4 km/h aus W

6.6 C

7.5 C

7.4 C

7.5 C

0 W/m

0.00 mm

23:35

7.4 C

1013.8 hpa

95 %

3.2 km/h aus 109

6.4 km/h aus W

6.6 C

7.5 C

7.4 C

7.5 C

0 W/m

0.00 mm

23:40

7.3 C

1013.8 hpa

95 %

3.2 km/h aus 112

8.0 km/h aus W

6.6 C

7.4 C

7.3 C

7.4 C

0 W/m

0.00 mm

23:45

7.3 C

1013.9 hpa

95 %

3.2 km/h aus 112

8.0 km/h aus WSW

6.6 C

7.4 C

7.3 C

7.4 C

0 W/m

0.00 mm

23:50

7.3 C

1013.9 hpa

95 %

4.8 km/h aus 113

14.5 km/h aus W

6.6 C

6.9 C

6.8 C

7.4 C

0 W/m

0.00 mm

23:55

7.4 C

1013.9 hpa

95 %

4.8 km/h aus 114

9.7 km/h aus W

6.6 C

7.0 C

6.9 C

7.5 C

0 W/m

0.00 mm